Regional Weather Roundup
Issued by NWS

Home | Current Version | Previous Version | Text Only | Print | Product List | Glossary On
Versions: 1 2 3 4 5 6 7 8 9 10 11 12 13 14 15 16 17 18 19 20 21 22 23 24 25 26 27 28 29 30 31 32 33 34 35 36 37 38 39 40 41 42 43 44 45 46 47 48 49 50
000
ASUS42 KTBW 010219
RWRFL
FLORIDA REGIONAL WEATHER ROUNDUP
NATIONAL WEATHER SERVICE TAMPA BAY RUSKIN FL
1000 PM EDT MON AUG 31 2015

NOTE: "FAIR" INDICATES FEW OR NO CLOUDS BELOW 12,000 FEET WITH NO
SIGNIFICANT WEATHER AND/OR OBSTRUCTIONS TO VISIBILITY.


FLZ001>010-012>015-112-114-115-010300-
PANHANDLE FLORIDA

CITY           SKY/WX    TMP DP  RH WIND       PRES   REMARKS
PENSACOLA      PTCLDY    83  71  67 W7        30.03R
PENSACOLA NAS  PTCLDY    76  71  85 CALM      30.03R
MILTON NAS     PTCLDY    82  72  71 SW7       30.04R
CRESTVIEW      MOCLDY    77  72  84 CALM      30.05R
DUKE FIELD     CLEAR     78  69  76 CALM      30.05R
VALPARAISO     CLEAR     83  73  70 CALM      30.04R
MARY ESTHER    CLEAR     84  72  67 N2        30.02R
PANAMA CITY    FAIR      78  70  76 CALM      30.04R
TYNDALL AFB    CLEAR     80  74  80 SE3       30.04R
APALACHICOLA   PTCLDY    77  75  93 CALM      30.04R

STATION/POSITION SKY/WX   TEMP    WIND        PRES    WAVE   SWELL
                          AIR SEA DIR/SP/G            HT/PER HT/PER
                          (F)     (DEG/KT/KT) (MB)    (FT/S) (FT/S)
30.1N   87.6W              85 85  220/  6/  8 1016.6R   1/ 5   2/ 5
29.2N   88.2W              83 86  130/  6/  8 1017.6R   1/ 7   2/ 7
28.8N   86.0W              85 86  100/  8/ 10 1017.3R   2/ 5   2/ 5
PANAMA CITY BEAC           85 86  330/  3/  5 1016.7R
CAPE SAN BLAS    NOT AVBL
TOWER C                    84     110/  8/ 10 1017.4R
28.5N   84.5W              84 86   90/ 12/ 12 1016.8R   2/ 4   2/ 6

$$
FLZ011-016>038-118-127-128-134-139-239-010300-
NORTH FLORIDA

CITY           SKY/WX    TMP DP  RH WIND       PRES   REMARKS
MARIANNA       CLEAR     79  73  82 CALM      30.04R
TALLAHASSEE    PTCLDY    82  72  71 E5        30.06R
PERRY          MOCLDY    79  73  81 CALM      30.07R
CROSS CITY       N/A     79  75  87 E3        30.06R
LAKE CITY      MOCLDY    73  73 100 CALM      30.08S
GAINESVILLE    MOCLDY    78  76  93 N6        30.08R
MAYPORT NAS    CLOUDY    82  77  84 S6        30.07R
JACKSONVILLE   CLOUDY    78  77  96 CALM      30.08R
JAX NAS        CLOUDY    84  77  79 SE6       30.07S
JAX CRAIG      CLOUDY    80  76  87 CALM      30.07R
JAX CECIL      PTCLDY    75  75 100 CALM      30.08R
FERNANDINA BEA FAIR      84  77  79 CALM      30.07R
ST AUGUSTINE   CLOUDY    82  77  84 S7        30.08R

STATION/POSITION SKY/WX   TEMP    WIND        PRES    WAVE   SWELL
                          AIR SEA DIR/SP/G            HT/PER HT/PER
                          (F)     (DEG/KT/KT) (MB)    (FT/S) (FT/S)
SHELL POINT                86      80/  2/  5   N/A
KEATON BEACH               80     100/  4/  5 1018.0R
CEDAR KEY                  82      80/ 10/ 11 1018.3R
FERNANDINA                 81 85  150/  1/  3 1017.3R
30.7N   81.3W                 86                N/A     3/ 9
MAYPORT                    81 85  170/  3/  5 1018.4R
31.4N   80.9W              82 84  140/  4/  4 1018.7R   3/ 9   3/ 9
ST AUGUSTINE               83 85  160/ 13/ 13 1018.9R

$$
FLZ040-043>046-052-053-057-058-063-144-010300-
INTERIOR CENTRAL FLORIDA

CITY           SKY/WX    TMP DP  RH WIND       PRES   REMARKS
OCALA          CLOUDY    79  73  83 CALM      30.08R
THE VILLAGES     N/A     77  75  94 E5        29.98R
LEESBURG       CLOUDY    76  73  91 E3        30.07R
SANFORD        CLOUDY    76  73  91 CALM      30.06R
ORLANDO EXEC   CLOUDY    76  76 100 E5        30.06R
ORLANDO INTL   CLOUDY    77  77 100 CALM      30.06R
KISSIMMEE      PTCLDY    81  77  89 CALM      30.06R
WINTER HAVEN   MOCLDY    77  76  96 SE3       30.07R
LAKELAND       PTCLDY    79  75  89 CALM      30.06S
BARTOW         FAIR      75 N/A N/A CALM      30.07S
OKEECHOBEE     CLOUDY    77  77 100 CALM      30.08R

$$
FLZ041-047-054-059-064-141-147-010300-
EAST CENTRAL FLORIDA

CITY           SKY/WX    TMP DP  RH WIND       PRES   REMARKS
DAYTONA BEACH  TSTM      77  75  93 S3        30.07R FOG
DELAND           N/A     75  75 100 E3        30.08R
NEW SMYRNA BEA LGT RAIN  82  79  89 SW5       30.07S
CAPE CANAVERAL CLOUDY    80  74  83 S5        30.05R
PATRICK AFB    CLOUDY    79  76  90 S7        30.06S
MELBOURNE      CLOUDY    77  74  90 S5        30.06R
VERO BEACH     CLOUDY    77  72  84 S3        30.08R
FT PIERCE      CLOUDY    77  73  87 CALM      30.08R
STUART         CLOUDY    77  72  83 CALM      30.10R

STATION/POSITION SKY/WX   TEMP    WIND        PRES    WAVE   SWELL
                          AIR SEA DIR/SP/G            HT/PER HT/PER
                          (F)     (DEG/KT/KT) (MB)    (FT/S) (FT/S)
28.5N   80.2W              84 83  160/ 10/ 12 1018.1R
28.9N   78.5W              85 86  160/  8/  8 1018.6R
TRIDENT PIER               83 86  200/  7/  9 1018.3R
28.4N   80.5W                 85                N/A     3/ 4   2/11
27.5N   80.2W                 84                N/A     3/11   2/11

$$
FLZ050-056-061-142-242-148-248-149-249-151-251-155-255-
160-260-010300-
WEST CENTRAL FLORIDA

CITY           SKY/WX    TMP DP  RH WIND       PRES   REMARKS
CRYSTAL RIVER  DRIZZLE   75  73  94 NE3       30.06S
INVERNESS      LGT RAIN  77  77 100 CALM      30.08R
BROOKSVILLE    LGT RAIN  77  75  93 NW3       30.07R
CLEARWATER     CLOUDY    78  76  93 N8        30.05R
TAMPA INTL     CLOUDY    80  75  84 N5        30.06R
TAMPA EXEC     CLOUDY    79  75  89 CALM      30.06R
PLANT CITY     CLOUDY    79  77  94 CALM      30.08R
MACDILL AFB    CLOUDY    79  79 100 N3        30.05R
PETER O KNIGHT CLOUDY    81  79  94 NE6       30.06R
ST PETERSBURG  CLOUDY    83  75  77 S10       30.03R
SARASOTA       CLOUDY    78  76  93 E5        30.03S
VENICE         CLOUDY    77  75  94 NE6       30.05R

STATION/POSITION SKY/WX   TEMP    WIND        PRES    WAVE   SWELL
                          AIR SEA DIR/SP/G            HT/PER HT/PER
                          (F)     (DEG/KT/KT) (MB)    (FT/S) (FT/S)
CEDAR KEY                  82      80/ 10/ 11 1018.3R
28.5N   84.5W              84 86   90/ 12/ 12 1016.8R   2/ 4   2/ 6
27.3N   84.2W                 87                N/A     2/ 5
CLEARWATER BEACH           78 86   30/  5/  5 1017.2R
MIDDLE TAMPA BAY           82     180/  9/ 10 1017.0R
VENICE                     78 86   70/  5/  7 1017.1R

$$
FLZ066-069-070-075>078-162-262-165-265-010300-
SOUTHWEST FLORIDA AND KEYS

CITY           SKY/WX    TMP DP  RH WIND       PRES   REMARKS
PUNTA GORDA    MOCLDY    77  77 100 SE6       30.07R
FT MYERS       PTCLDY    77  76  96 SE3       30.05R
SOUTHWEST INTL CLEAR     79  76  90 SE6       30.06R
NAPLES         PTCLDY    80  77  90 CALM      30.05R
MARCO ISLAND   CLOUDY    79  73  83 E6        30.06R
MARATHON       CLEAR     84  76  76 CALM      30.07R
KEY WEST NAS   MOCLDY    84  77  79 NE5       30.07R
KEY WEST INTL  CLEAR     84  79  85 N3        30.08R HX  96

STATION/POSITION SKY/WX   TEMP    WIND        PRES    WAVE   SWELL
                          AIR SEA DIR/SP/G            HT/PER HT/PER
                          (F)     (DEG/KT/KT) (MB)    (FT/S) (FT/S)
VENICE                     78 86   70/  5/  7 1017.1R
NAPLES                        85              1018.1R
26.0N   85.6W              84 87   90/  8/  8 1015.5R   2/ 4   2/ 4
DRY TORTUGAS                                    N/A
NW FL BAY                  84      30/  5/  5 1017.6
SAND KEY                   84        CALM     1018.4R
LONG KEY                   85 86  130/  5/  5 1019.2R
MOLASSES REEF              85 87  180/  2/  4 1018.5R

$$
FLZ067-068-071>074-168-172>174-010300-
SOUTHEAST FLORIDA

CITY           SKY/WX    TMP DP  RH WIND       PRES   REMARKS
W PALM BEACH   MOCLDY    79  74  84 CALM      30.09R
FT LAUDER-EXEC PTCLDY    83  75  77 CALM      30.08R
FT LAUDERDALE  MOCLDY    82  76  81 NW5       30.07R
POMPANO BEACH  PTCLDY    83  74  74 NW6       30.08R
PEMBROKE PINES PTCLDY    83  75  77 NW5       30.09R
OPA LOCKA      PTCLDY    83  75  77 NW6       30.08R
MIAMI          MOCLDY    84  76  76 CALM      30.08R
WEST KENDALL   CLEAR     79  76  90 NW5         N/A
HOMESTEAD      MOCLDY    82  75  78 VRB2      30.07R

STATION/POSITION SKY/WX   TEMP    WIND        PRES    WAVE   SWELL
                          AIR SEA DIR/SP/G            HT/PER HT/PER
                          (F)     (DEG/KT/KT) (MB)    (FT/S) (FT/S)
PORT EVERGLADES            84     320/  5/  6 1018.4R
VIRGINIA KEY               85 85  170/  4/  6 1017.5R
LAKE WORTH                 83 87  240/  4/  5 1017.5R
SETTLEMENT POINT           84     130/  4/  4 1019.6R

$$



USA.gov is the U.S. government's official web portal to all federal, state and local government web resources and services.